Location: Göttingen
(51.5413°N, 9.9158°E)
Time: 03:03:37
(UTC+02:00)

Envisat - Pass Details

Date: 27 January 2022
Orbit: 764 x 765 km, 98.2° (Epoch: 22 May)

Event Time Altitude Azimuth Distance (km) Brightness Sun altitude
Rises 17:38:58 0° 212° (SSW) 3,220 7.2 -6.2°
Reaches altitude 10° 17:42:03 10° 231° (SW) 2,299 6.9 -6.7°
Maximum altitude 17:45:21 17° 272° (W) 1,850 6.1 -7.1°
Drops below altitude 10° 17:48:40 10° 314° (NW) 2,310 5.9 -7.6°
Sets 17:51:48 0° 334° (NNW) 3,242 6.3 -8.1°
